[[{"header":{"parameterUnit":"m.s-1","parameterCategory":1,"la1":30.2991,"la2":30.254,"lo1":-89.0895,"lo2":-89.0444,"dy":0.0017,"dx":0.0017,"nx":28,"ny":28,"refTime":"2024-10-21T21:00:00:Z","depth":0,"parameterNumber":2,"parameterNumberName":"U-component_of_WINDS"},"data":[0,0,0,0,0,0,0,0,0,0,0,0,0,0,0,0,0,0,0,0,0,0,0,0,0,0,0,0,0,0,0,0,0,0,0,0,0,0,0,0,0,0,0,0,0,0,0,0,0,0,0,0,0,0,0,0,0,0,-1.1186,-1.1185,0,-1.1125,-1.1124,-1.1123,-1.1025,-1.1024,-1.1022,-1.102,-1.0958,-1.0958,-1.0958,0,0,0,0,0,0,0,0,0,0,0,0,0,-1.122,-1.122,-1.1186,-1.1185,-1.1184,-1.1125,-1.1124,-1.1123,-1.1026,-1.1024,-1.1021,-1.1019,-1.0958,-1.0958,-1.0958,0,0,0,0,0,0,0,0,0,0,0,0,0,-1.1187,-1.122,-1.1186,-1.1129,-1.1123,-1.1125,-1.1124,-1.1123,-1.1026,-1.1024,-1.1021,-1.1018,-1.0958,-1.0958,-1.0958,-1.1011,0,0,-1.0957,-1.0957,0,0,0,0,0,0,0,0,-1.1189,-1.1185,-1.1138,-1.1133,-1.1126,-1.108,-1.1113,-1.1085,-1.1027,-1.1063,-1.102,-1.1017,-1.1,-1.0997,-1.0991,-1.1008,-1.1005,-1.0957,-1.0957,-1.0957,-1.0957,0,0,0,0,0,0,0,-1.1191,-1.1187,-1.1162,-1.1137,-1.113,-1.1106,-1.1099,-1.1107,-1.1047,-1.106,-1.1052,-1.1046,-1.0997,-1.0991,-1.0989,-1.1004,-1.0957,-1.0957,-1.0957,-1.0957,-1.1064,-1.1067,0,0,0,0,0,0,-1.1202,-1.119,-1.1164,-1.116,-1.1151,-1.1108,-1.1099,-1.1098,-1.1047,-1.1037,-1.1049,-1.1042,-1.0993,-1.0989,-1.0986,-1.1047,-1.0957,-1.0957,-1.0957,-1.1061,-1.1065,-1.1068,0,0,0,0,0,0,-1.1203,-1.12,-1.1166,-1.1173,-1.1167,-1.111,-1.1109,-1.1098,-1.1092,-1.1039,-1.1028,-1.1054,-1.099,-1.0986,-1.1006,-1.1043,-1.0957,-1.0957,-1.1058,-1.1062,-1.1066,-1.1168,0,0,0,0,0,0,-1.1204,-1.1201,-1.122,-1.1174,-1.1167,-1.1187,-1.1111,-1.1098,-1.1092,-1.1083,-1.1041,-1.1031,-1.0988,-1.1007,-1.1006,-1.1042,-1.0957,-1.1054,-1.106,-1.1065,-1.1161,-1.1175,-1.1187,0,0,0,0,0,-1.1206,-1.1251,-1.1222,-1.1219,-1.119,-1.1189,-1.1185,-1.1134,-1.1096,-1.1115,-1.1081,-1.1033,-1.1039,-1.1009,-1.1008,-1.1044,-1.1052,-1.1058,-1.1064,-1.1155,-1.1172,-1.1187,0,0,0,0,0,0,-1.1302,-1.1244,-1.1211,-1.1242,-1.1222,-1.1172,-1.1195,-1.1153,-1.1143,-1.1134,-1.1072,-1.1063,-1.1091,-1.1069,-1.1037,-1.1094,-1.1038,-1.1045,-1.1107,-1.1123,-1.1136,-1.1141,-1.0957,0,0,0,0,0,-1.1327,-1.1331,-1.128,-1.1313,-1.1304,-1.1252,-1.1249,-1.1212,-1.1188,-1.1179,-1.1146,-1.1125,-1.1122,-1.1121,-1.1116,-1.1157,-1.1148,-1.1182,-1.1195,-1.1206,-1.1212,-1.1235,-1.125,-1.1089,-1.1089,-1.1089,0,0,-1.1379,-1.1347,-1.1354,-1.1331,-1.1311,-1.1317,-1.1245,-1.1254,-1.1258,-1.118,-1.1197,-1.1173,-1.1145,-1.1176,-1.1188,-1.1159,-1.1255,-1.1214,-1.1223,-1.1223,-1.1243,-1.1258,-1.1272,-1.1093,-1.1092,-1.1092,0,0,-1.1476,-1.1452,-1.1478,-1.1459,-1.1429,-1.1395,-1.1401,-1.1359,-1.134,-1.1356,-1.1298,-1.1303,-1.1299,-1.1282,-1.1273,-1.1367,-1.1323,-1.1367,-1.1435,-1.1458,-1.1471,-1.1482,-1.1517,-1.153,-1.1373,-1.1374,-1.1374,0,-1.1544,-1.1551,-1.1496,-1.151,-1.1502,-1.1433,-1.1459,-1.1443,-1.1414,-1.141,-1.1378,-1.1373,-1.1349,-1.1377,-1.14,-1.1395,-1.1401,-1.1371,-1.1473,-1.1484,-1.1493,-1.1526,-1.1539,-1.1379,-1.1379,-1.1378,-1.1377,0,-1.1637,-1.1643,-1.1667,-1.1641,-1.1636,-1.1656,-1.1605,-1.1607,-1.1571,-1.154,-1.1559,-1.1528,-1.1516,-1.152,-1.1484,-1.1543,-1.1526,-1.1485,-1.1427,-1.1515,-1.1545,-1.1557,-1.1387,-1.1385,-1.1384,-1.1382,0,0,-1.1792,-1.1736,-1.1746,-1.1735,-1.1698,-1.1701,-1.1719,-1.1708,-1.1712,-1.1694,-1.1708,-1.1708,-1.1669,-1.1659,-1.1622,-1.1642,-1.172,-1.1597,-1.1596,-1.1622,-1.1785,-1.1818,-1.1833,-1.1691,-1.1693,-1.1695,-1.1788,0,-1.1882,-1.1908,-1.1861,-1.1899,-1.1905,-1.184,-1.1855,-1.1835,-1.1807,-1.1809,-1.1778,-1.1779,-1.1728,-1.1722,-1.1739,-1.1707,-1.1752,-1.17,-1.1704,-1.1705,-1.1714,-1.1848,-1.1881,-1.1971,-1.1799,-1.1801,-1.1803,0,-1.199,-1.1979,-1.2018,-1.1981,-1.1982,-1.1997,-1.1984,-1.1985,-1.1962,-1.194,-1.1931,-1.1887,-1.1903,-1.1848,-1.1869,-1.1835,-1.1834,-1.1819,-1.1821,-1.182,-1.1759,-1.1852,-1.1998,-1.2012,-1.182,-1.1819,-1.1817,0,-1.2102,-1.2096,-1.2119,-1.2111,-1.2068,-1.208,-1.2063,-1.2036,-1.2033,-1.2022,-1.202,-1.2011,-1.2007,-1.2001,-1.1957,-1.192,-1.1985,-1.1925,-1.1968,-1.197,-1.1984,-1.1984,-1.2134,-1.1983,-1.1983,-1.1983,-1.1983,0,-1.2208,-1.2234,-1.2169,-1.2183,-1.2212,-1.2157,-1.2188,-1.2164,-1.2141,-1.2151,-1.2094,-1.2104,-1.2044,-1.2048,-1.2014,-1.2038,-1.2036,-1.202,-1.2011,-1.2025,-1.2028,-1.2024,-1.2017,-1.1986,-1.1986,-1.1985,-1.1984,0,-1.2336,-1.2293,-1.2314,-1.2272,-1.2262,-1.2286,-1.225,-1.2262,-1.2232,-1.2244,-1.2244,-1.2197,-1.2199,-1.2154,-1.2146,-1.2123,-1.2164,-1.2143,-1.2172,-1.2166,-1.2212,-1.2209,-1.2365,-1.2384,-1.2221,-1.2222,-1.2224,0,-1.2407,-1.2426,-1.2387,-1.2389,-1.2375,-1.2379,-1.2376,-1.2324,-1.2324,-1.23,-1.2316,-1.2313,-1.2309,-1.2315,-1.228,-1.2275,-1.2254,-1.231,-1.2253,-1.2268,-1.2257,-1.2257,-1.2259,-1.2322,-1.2324,-1.2325,-1.2327,0,-1.2538,-1.2516,-1.2514,-1.2506,-1.2504,-1.2495,-1.2482,-1.2487,-1.243,-1.2433,-1.2435,-1.2432,-1.2425,-1.2424,-1.2413,-1.2396,-1.2353,-1.2345,-1.2355,-1.2371,-1.2387,-1.238,-1.2205,-1.2342,-1.234,-1.2339,-1.2338,-1.2338,-1.264,-1.2655,-1.263,-1.2631,-1.2616,-1.2605,-1.2615,-1.2587,-1.2587,-1.2578,-1.2548,-1.2556,-1.2534,-1.2514,-1.2501,-1.2507,-1.248,-1.2494,-1.2498,-1.2502,-1.2512,-1.2386,-1.2505,-1.2504,-1.2504,-1.2504,-1.2503,0,-1.2769,-1.275,-1.2751,-1.2736,-1.2737,-1.2696,-1.268,-1.2684,-1.2691,-1.2674,-1.2672,-1.2675,-1.2674,-1.2641,-1.2636,-1.2648,-1.2628,-1.2648,-1.2647,-1.2644,-1.2535,-1.2528,-1.2664,-1.2664,-1.2664,-1.2664,-1.2664,-1.2664,-1.2836,-1.286,-1.2836,-1.2852,-1.2833,-1.284,-1.2835,-1.2826,-1.2813,-1.2819,-1.2819,-1.2796,-1.2773,-1.2767,-1.2766,-1.2756,-1.2757,-1.2785,-1.2768,-1.2667,-1.2652,-1.2637,-1.2629,-1.2785,-1.2785,-1.2877,-1.2878,-1.2878]},{"header":{"parameterUnit":"m.s-1","parameterCategory":1,"la1":30.2991,"la2":30.254,"lo1":-89.0895,"lo2":-89.0444,"dy":0.0017,"dx":0.0017,"nx":28,"ny":28,"refTime":"2024-10-21T21:00:00:Z","depth":0,"parameterNumber":3,"parameterNumberName":"V-component_of_WINDS"},"data":[0,0,0,0,0,0,0,0,0,0,0,0,0,0,0,0,0,0,0,0,0,0,0,0,0,0,0,0,0,0,0,0,0,0,0,0,0,0,0,0,0,0,0,0,0,0,0,0,0,0,0,0,0,0,0,0,0,0,1.4354,1.4354,0,1.437,1.437,1.437,1.4412,1.4413,1.4414,1.4415,1.4426,1.4425,1.4424,0,0,0,0,0,0,0,0,0,0,0,0,0,1.4357,1.4356,1.4354,1.4354,1.4354,1.437,1.437,1.437,1.4412,1.4413,1.4414,1.4415,1.4426,1.4425,1.4424,0,0,0,0,0,0,0,0,0,0,0,0,0,1.4362,1.4356,1.4354,1.4377,1.438,1.437,1.437,1.437,1.4412,1.4413,1.4415,1.4416,1.4426,1.4425,1.4424,1.4391,0,0,1.4422,1.4421,0,0,0,0,0,0,0,0,1.4362,1.4362,1.4374,1.4376,1.4378,1.4391,1.4375,1.4377,1.4412,1.4399,1.4415,1.4417,1.4412,1.4413,1.4412,1.4392,1.4392,1.4422,1.4421,1.4421,1.442,0,0,0,0,0,0,0,1.4361,1.4361,1.436,1.4374,1.4377,1.4386,1.4388,1.4375,1.4398,1.4401,1.4404,1.4405,1.4414,1.4413,1.4413,1.4392,1.4422,1.4421,1.442,1.442,1.4346,1.4345,0,0,0,0,0,0,1.4358,1.4361,1.4359,1.436,1.4373,1.4385,1.4387,1.4385,1.4398,1.4401,1.4404,1.4407,1.4414,1.4414,1.4414,1.4376,1.4421,1.442,1.4419,1.4348,1.4346,1.4344,0,0,0,0,0,0,1.4358,1.4358,1.4359,1.4362,1.4363,1.4383,1.438,1.4385,1.4384,1.4401,1.4405,1.4399,1.4415,1.4415,1.4397,1.4377,1.4419,1.4419,1.4349,1.4347,1.4345,1.43,0,0,0,0,0,0,1.4358,1.4357,1.4346,1.4361,1.4362,1.4343,1.4379,1.4384,1.4383,1.4387,1.4397,1.44,1.4416,1.4398,1.4396,1.4377,1.4418,1.4351,1.4348,1.4346,1.4304,1.4297,1.4291,0,0,0,0,0,1.4358,1.4331,1.4345,1.4344,1.4348,1.4342,1.4342,1.4362,1.4381,1.4369,1.438,1.44,1.438,1.4396,1.4394,1.4374,1.4353,1.4349,1.4346,1.4307,1.4298,1.4291,0,0,0,0,0,0,1.431,1.4333,1.4349,1.4326,1.4332,1.4349,1.4334,1.4353,1.4352,1.4355,1.4379,1.4381,1.436,1.4365,1.4383,1.4343,1.437,1.4366,1.434,1.4333,1.4326,1.4325,1.4417,0,0,0,0,0,1.4297,1.4291,1.4312,1.429,1.4292,1.4313,1.431,1.4326,1.4332,1.4334,1.4344,1.4347,1.4342,1.4338,1.4334,1.4306,1.4308,1.4291,1.4285,1.4279,1.4275,1.4261,1.4254,1.4334,1.4334,1.4334,0,0,1.427,1.4282,1.4276,1.428,1.4287,1.4279,1.4314,1.4304,1.4298,1.4332,1.4316,1.4324,1.433,1.4307,1.4297,1.431,1.4254,1.4275,1.4271,1.427,1.4257,1.425,1.4243,1.4332,1.4332,1.4332,0,0,1.4216,1.4225,1.4208,1.4214,1.4224,1.4239,1.4235,1.425,1.4256,1.4242,1.4267,1.426,1.4251,1.4254,1.4254,1.4205,1.4223,1.4203,1.4169,1.4155,1.4149,1.4144,1.4125,1.4119,1.4199,1.4199,1.4199,0,1.4179,1.4171,1.4196,1.4186,1.4187,1.422,1.4202,1.4207,1.4214,1.4213,1.4229,1.4219,1.4225,1.4204,1.4192,1.4192,1.4187,1.4201,1.4148,1.4143,1.4138,1.4121,1.4114,1.4197,1.4197,1.4197,1.4197,0,1.4126,1.4119,1.4104,1.4113,1.4113,1.4099,1.4121,1.4118,1.4134,1.4147,1.4131,1.4141,1.414,1.4136,1.4151,1.4117,1.4125,1.4144,1.4171,1.4128,1.4112,1.4106,1.4193,1.4194,1.4195,1.4195,0,0,1.4039,1.4065,1.4059,1.4064,1.4079,1.4073,1.4061,1.4063,1.4059,1.4063,1.4053,1.4046,1.4064,1.4065,1.4081,1.4068,1.4029,1.4089,1.409,1.4077,1.3992,1.3976,1.3969,1.4042,1.4041,1.404,1.3991,0,1.3988,1.3969,1.3993,1.3969,1.3964,1.3996,1.3986,1.3993,1.4005,1.4001,1.4014,1.4008,1.4033,1.4034,1.4024,1.4036,1.4012,1.404,1.4031,1.403,1.4027,1.3961,1.3944,1.3897,1.3985,1.3984,1.3984,0,1.3924,1.3929,1.3905,1.3923,1.3922,1.3912,1.3916,1.3912,1.3921,1.3931,1.3933,1.3953,1.3942,1.397,1.3954,1.3972,1.397,1.3976,1.3975,1.3973,1.4003,1.3956,1.3883,1.3875,1.3974,1.3975,1.3976,0,1.3863,1.3863,1.3849,1.3852,1.3873,1.3865,1.3873,1.3885,1.3884,1.3888,1.3888,1.3889,1.3889,1.3889,1.3908,1.3927,1.389,1.3919,1.3896,1.3896,1.3885,1.3885,1.3809,1.3886,1.3886,1.3886,1.3887,0,1.3802,1.3786,1.3822,1.3812,1.3796,1.3824,1.3806,1.3817,1.3827,1.382,1.3848,1.3841,1.3869,1.3864,1.3879,1.3864,1.3864,1.387,1.3874,1.3867,1.3866,1.3865,1.3868,1.3885,1.3885,1.3885,1.3886,0,1.3729,1.3753,1.3739,1.3762,1.3767,1.3753,1.3772,1.3764,1.3779,1.3771,1.377,1.3793,1.3789,1.381,1.3809,1.382,1.3796,1.3806,1.3793,1.3796,1.3772,1.3773,1.3691,1.3682,1.3766,1.3765,1.3764,0,1.3688,1.3677,1.3699,1.3697,1.3705,1.3702,1.3703,1.373,1.373,1.3741,1.3732,1.3731,1.3732,1.3725,1.374,1.374,1.375,1.3721,1.375,1.3743,1.3748,1.3748,1.3747,1.3714,1.3713,1.3713,1.3712,0,1.3612,1.3625,1.3626,1.3632,1.3633,1.3638,1.3644,1.3641,1.3671,1.3669,1.3668,1.3668,1.367,1.3668,1.3672,1.3679,1.37,1.3704,1.3698,1.3689,1.3682,1.3685,1.3776,1.3704,1.3705,1.3706,1.3706,1.3706,1.3553,1.3545,1.356,1.356,1.3569,1.3576,1.357,1.3586,1.3586,1.359,1.3606,1.3601,1.3613,1.362,1.3626,1.3622,1.3635,1.3627,1.3625,1.3622,1.3618,1.3685,1.3622,1.3623,1.3623,1.3623,1.3623,0,1.3478,1.349,1.3491,1.3501,1.3501,1.3525,1.3534,1.3532,1.3528,1.3538,1.3539,1.3537,1.3537,1.3554,1.3556,1.3549,1.3559,1.3548,1.3548,1.355,1.3606,1.361,1.3541,1.3541,1.3541,1.3541,1.3541,1.3541,1.3439,1.3427,1.3442,1.3435,1.3447,1.3444,1.3447,1.3453,1.3461,1.3459,1.3459,1.3472,1.3484,1.3487,1.3488,1.3493,1.3492,1.3478,1.3486,1.3538,1.3545,1.3553,1.3557,1.3478,1.3477,1.343,1.3429,1.3429]}]]